Terminal Aerodrome Forecast
Issued by NWS

Home | Current Version | Previous Version | Text Only | Print | Product List | Glossary On
Versions: 1 2 3 4 5 6 7 8 9 10 11 12 13 14 15 16 17 18 19 20 21 22 23 24 25
000
FTUS43 KDVN 291700
TAFCID
TAF
KCID 291724Z 2918/3018 32021G31KT P6SM OVC015
     FM300100 32014KT P6SM SCT030
     FM301200 34007KT P6SM FEW030=

USA.gov is the U.S. government's official web portal to all federal, state and local government web resources and services.